Volver al catálogo

CZ-6A DEB

ActivoSSO
NORAD 55191·DEBRIS·🇨🇳 China

Lanzado Nov 11, 2022 desde Taiyuan Satellite Launch Center

Loading…

Próximos Pases (próximas 24 horas)

TLE

ActualizadoSource: Space-Track

Época: Sep 14, 2026, 12:21 UTC

1 55191U 22151VG  26257.51495639  .00000511  00000-0  23665-3 0  9998
2 55191  98.7181 270.0288 0049348  81.1341 279.5421 14.24459759194150

Sigue CZ-6A DEB en tiempo real con AllMySat

Download on the App Store